TimeMST,TemperatureF,Dew PointF,Humidity,Sea Level PressureIn,VisibilityMPH,Wind Direction,Wind SpeedMPH,Gust SpeedMPH,PrecipitationIn,Events,Conditions,WindDirDegrees,DateUTC
12:15 AM,19.4,17.6,93,29.77,3.0,Calm,Calm,-,N/A,,Overcast,0,2014-02-04 07:15:00
12:35 AM,19.4,17.6,93,29.77,2.5,Calm,Calm,-,N/A,,Overcast,0,2014-02-04 07:35:00
12:55 AM,19.4,17.6,93,29.76,2.5,Calm,Calm,-,N/A,,Overcast,0,2014-02-04 07:55:00
1:15 AM,19.4,17.6,93,29.76,3.0,Calm,Calm,-,0.01,,Overcast,0,2014-02-04 08:15:00
1:35 AM,19.4,17.6,93,29.76,2.5,Calm,Calm,-,0.01,,Overcast,0,2014-02-04 08:35:00
1:55 AM,19.4,17.6,93,29.76,2.5,Calm,Calm,-,0.02,,Overcast,0,2014-02-04 08:55:00
2:15 AM,19.4,17.6,93,29.76,3.0,Calm,Calm,-,N/A,,Overcast,0,2014-02-04 09:15:00
2:35 AM,19.4,17.6,93,29.76,3.0,Calm,Calm,-,N/A,,Overcast,0,2014-02-04 09:35:00
2:55 AM,19.4,17.6,93,29.76,2.5,Calm,Calm,-,N/A,,Overcast,0,2014-02-04 09:55:00
3:15 AM,19.4,17.6,93,29.75,3.0,Calm,Calm,-,0.01,,Overcast,0,2014-02-04 10:15:00
3:35 AM,19.4,17.6,93,29.75,4.0,Calm,Calm,-,0.01,,Overcast,0,2014-02-04 10:35:00
3:55 AM,17.6,17.6,100,29.75,5.0,Calm,Calm,-,0.01,,Overcast,0,2014-02-04 10:55:00
4:15 AM,17.6,17.6,100,29.76,9.0,Calm,Calm,-,N/A,,Overcast,0,2014-02-04 11:15:00
4:35 AM,17.6,17.6,100,29.76,8.0,Calm,Calm,-,N/A,,Overcast,0,2014-02-04 11:35:00
4:55 AM,17.6,15.8,93,29.76,10.0,Calm,Calm,-,N/A,,Overcast,0,2014-02-04 11:55:00
5:15 AM,17.6,15.8,93,29.76,10.0,Calm,Calm,-,N/A,,Overcast,0,2014-02-04 12:15:00
5:35 AM,15.8,15.8,100,29.76,10.0,Calm,Calm,-,N/A,,Scattered Clouds,0,2014-02-04 12:35:00
5:55 AM,15.8,12.2,86,29.76,7.0,Calm,Calm,-,N/A,,Clear,0,2014-02-04 12:55:00
6:15 AM,12.2,12.2,100,29.76,9.0,SSE,4.6,-,N/A,,Clear,160,2014-02-04 13:15:00
6:35 AM,12.2,10.4,92,29.76,10.0,Calm,Calm,-,N/A,,Scattered Clouds,0,2014-02-04 13:35:00
6:50 AM,10.4,10.4,100,29.76,10.0,Calm,Calm,-,N/A,,Mostly Cloudy,0,2014-02-04 13:50:00
7:50 AM,12.2,10.4,92,29.77,5.0,Calm,Calm,-,N/A,,Mostly Cloudy,0,2014-02-04 14:50:00
8:15 AM,14.0,12.2,93,29.77,2.0,Calm,Calm,-,N/A,Snow,Light Snow,0,2014-02-04 15:15:00
8:50 AM,17.6,15.8,93,29.78,5.0,Calm,Calm,-,N/A,Snow,Light Snow,0,2014-02-04 15:50:00
9:50 AM,21.2,19.4,93,29.78,5.0,Calm,Calm,-,N/A,Snow,Light Snow,0,2014-02-04 16:50:00
10:50 AM,26.6,24.8,93,29.78,7.0,Calm,Calm,-,N/A,,Mostly Cloudy,0,2014-02-04 17:50:00
11:50 AM,33.8,6.8,32,29.76,7.0,Calm,Calm,-,N/A,Snow,Light Snow,0,2014-02-04 18:50:00
12:50 PM,24.8,21.2,86,29.74,10.0,Calm,Calm,-,N/A,,Mostly Cloudy,0,2014-02-04 19:50:00
1:50 PM,26.6,19.4,74,29.73,10.0,Calm,Calm,-,N/A,,Mostly Cloudy,0,2014-02-04 20:50:00
2:30 PM,26.6,19.4,74,29.75,1.0,West,23.0,34.5,N/A,Snow,Light Snow,280,2014-02-04 21:30:00
2:50 PM,23.0,19.4,86,29.76,3.0,WSW,12.7,18.4,N/A,Snow,Light Snow,250,2014-02-04 21:50:00
3:00 PM,23.0,19.4,86,29.77,7.0,West,5.8,-,N/A,,Mostly Cloudy,270,2014-02-04 22:00:00
3:15 PM,23.0,19.4,86,29.77,10.0,Calm,Calm,-,N/A,,Overcast,0,2014-02-04 22:15:00
3:50 PM,24.8,19.4,80,29.79,10.0,SW,4.6,-,N/A,,Mostly Cloudy,220,2014-02-04 22:50:00
4:55 PM,19.4,12.2,74,29.84,10.0,ENE,13.8,21.9,N/A,,Mostly Cloudy,70,2014-02-04 23:55:00
5:50 PM,19.4,12.2,74,29.87,10.0,Calm,Calm,-,N/A,,Mostly Cloudy,0,2014-02-05 00:50:00
6:50 PM,19.4,10.4,68,29.92,10.0,Calm,Calm,-,N/A,,Overcast,0,2014-02-05 01:50:00
7:50 PM,15.8,8.6,73,29.95,10.0,Variable,6.9,-,N/A,,Overcast,0,2014-02-05 02:50:00
8:50 PM,14.0,8.6,79,29.97,10.0,Calm,Calm,-,N/A,,Overcast,0,2014-02-05 03:50:00
9:50 PM,12.2,8.6,85,30.00,10.0,Calm,Calm,-,N/A,,Overcast,0,2014-02-05 04:50:00
10:50 PM,12.2,6.8,79,30.01,10.0,Calm,Calm,-,N/A,,Overcast,0,2014-02-05 05:50:00
11:15 PM,10.4,6.8,85,30.03,10.0,Calm,Calm,-,N/A,,Overcast,0,2014-02-05 06:15:00
11:35 PM,10.4,6.8,85,30.03,7.0,Calm,Calm,-,N/A,,Overcast,0,2014-02-05 06:35:00
11:55 PM,10.4,6.8,85,30.03,4.0,Calm,Calm,-,N/A,,Overcast,0,2014-02-05 06:55:00